Wind_Speed
22 22 24 25 26 27 26 25 24 25 25 24 24 25 25 27 26 24 27 23 19 16 20 17 14 20 15 14 13 7 2 6 7 6 8 9 4 22 14 13 13 12 20 20 12
22 24 24 25 25 26 27 27 25 27 27 27 25 25 25 27 29 32 29 24 23 24 24 22 17 19 16 10 11 9 5 9 9 7 8 19 8 24 14 24 21 14 15 20 17
21 21 22 24 26 27 27 27 28 27 26 28 27 27 24 23 27 36 27 25 25 26 30 22 20 17 18 12 10 10 13 21 18 25 17 16 27 26 12 12 27 26 19 18 24
20 22 23 24 24 24 26 28 29 28 29 26 27 28 23 18 9 3 16 15 17 20 26 27 17 13 7 8 23 5 15 27 33 35 21 15 28 22 29 29 39 40 22 18 30
19 19 18 18 21 24 24 24 24 25 26 26 24 25 23 17 28 7 20 17 7 6 22 28 23 21 8 6 5 6 14 26 27 29 29 29 24 23 32 39 42 35 21 21 32
21 21 22 22 21 20 20 22 25 25 23 23 19 18 20 15 35 32 26 27 14 10 12 26 17 22 4 11 6 12 13 20 19 27 28 24 21 21 28 34 36 27 23 24 33
22 23 23 22 23 23 24 23 22 23 25 25 18 18 25 47 23 22 34 45 36 30 25 19 29 11 9 6 21 15 14 17 14 18 21 26 16 21 32 32 35 32 25 28 34
22 24 24 24 24 25 24 24 24 26 23 20 18 16 23 33 26 44 38 25 32 34 36 32 23 27 15 8 7 4 3 7 6 15 19 9 26 19 36 31 33 32 33 30 37
23 23 25 26 26 25 26 28 27 28 27 21 15 14 18 16 33 42 41 40 33 26 24 14 23 16 4 7 4 2 14 15 21 11 6 7 15 10 27 24 26 35 40 31 38
26 25 24 24 26 26 27 28 25 14 11 9 12 6 22 19 16 23 30 38 29 18 24 19 13 6 5 5 13 10 8 6 17 1 8 13 13 17 29 21 26 31 36 31 40
24 26 27 27 24 24 27 28 9 1 7 11 9 14 6 16 16 6 10 20 25 17 12 16 8 19 18 21 17 8 8 9 8 4 7 8 9 15 18 15 21 30 32 31 37
25 24 24 26 27 23 21 12 8 12 14 23 30 36 43 33 12 11 15 13 14 18 10 7 30 19 16 16 16 9 9 17 18 8 7 9 14 15 12 13 19 26 32 26 22
25 25 25 24 25 24 13 11 11 22 7 16 29 23 37 34 19 19 19 14 7 15 26 28 20 16 20 16 18 18 17 15 19 2 6 8 14 12 15 8 21 21 19 18 23
25 23 23 25 19 11 12 2 15 8 5 8 6 8 14 23 16 42 18 13 8 19 19 18 21 22 17 24 17 19 16 21 18 5 6 4 5 5 8 10 7 18 14 18 20
23 23 22 19 23 22 11 15 10 6 5 2 3 4 7 18 11 27 34 25 10 10 11 12 18 24 21 21 22 18 11 9 10 6 4 9 3 7 4 8 11 11 14 13 14
24 25 23 22 21 17 11 12 3 2 8 6 5 11 3 14 23 3 21 28 16 4 9 10 15 25 25 14 19 7 4 2 4 4 12 19 7 5 7 8 7 4 5 10 20
25 25 22 20 20 16 14 7 2 5 4 1 10 16 10 9 8 10 11 17 18 12 16 6 12 3 7 15 6 7 7 2 3 5 7 7 6 15 7 9 9 9 10 17 22
26 23 21 16 14 9 2 1 6 5 11 16 15 15 6 20 8 12 10 14 23 15 10 14 11 22 12 9 12 14 14 6 6 4 4 7 7 7 8 11 19 24 14 24 26
25 23 10 9 1 8 4 6 4 3 11 11 14 7 7 14 8 12 7 7 12 20 6 12 14 2 16 6 14 9 16 12 2 2 2 4 7 9 2 5 6 10 21 26 29
25 18 7 9 7 10 1 6 4 5 10 11 6 7 12 15 9 15 5 15 10 4 3 3 5 8 19 19 18 10 10 8 5 5 4 4 4 6 4 5 3 7 12 23 27
19 9 6 4 8 4 2 4 5 10 13 5 6 8 12 13 6 7 5 8 17 18 10 4 1 3 6 16 21 8 8 5 7 6 5 2 6 7 9 9 11 9 20 29 32
8 3 8 4 2 1 1 3 9 9 8 5 5 11 12 9 6 7 7 9 15 15 9 5 5 5 13 2 20 13 12 10 9 6 6 3 7 5 9 10 13 13 26 30 31
12 5 9 8 2 1 3 4 6 5 5 3 4 3 9 8 6 2 8 11 10 14 12 8 5 5 6 2 4 23 19 17 4 3 7 9 8 3 4 6 12 17 27 30 29
6 4 3 4 6 3 3 4 4 9 8 7 7 4 8 11 6 8 13 10 20 17 15 9 4 10 12 3 5 6 21 11 16 12 10 9 3 3 5 9 6 13 24 31 32
4 2 5 4 3 4 3 4 7 7 5 7 3 2 8 8 11 10 13 12 13 16 2 3 4 6 16 21 10 3 11 21 19 14 15 12 9 9 10 10 15 27 26 28 31
6 3 6 7 10 5 3 2 4 8 3 6 4 9 6 5 8 10 12 11 5 6 6 4 4 7 7 14 21 16 4 22 21 16 11 8 8 8 9 11 12 24 28 29 34
7 6 5 5 5 3 3 6 8 12 8 9 11 6 6 8 10 14 15 12 8 4 5 6 3 10 6 8 11 15 27 9 15 17 18 10 9 8 5 13 16 23 30 35 38
Wind_Direction
291 290 289 288 286 287 288 285 280 277 275 274 274 273 276 278 277 272 267 277 273 262 255 252 215 207 217 215 191 203 101 253 239 190 252 273 348 303 312 284 300 223 237 262 237
291 290 289 289 290 288 286 284 279 278 277 275 273 272 275 280 280 270 270 277 273 260 250 239 221 204 209 227 186 179 168 236 219 202 248 288 276 289 312 306 293 271 256 253 221
309 300 292 286 282 283 285 286 285 279 274 275 275 273 273 279 289 271 280 271 266 246 235 235 218 215 221 207 191 190 216 236 271 251 247 274 288 292 279 283 280 279 283 247 206
331 318 310 305 297 284 276 276 278 279 278 272 272 273 270 265 239 222 224 223 225 234 218 207 198 200 223 198 226 227 228 239 247 263 272 264 278 285 286 277 285 287 280 236 203
337 336 335 324 312 305 298 285 276 274 274 278 278 273 273 245 236 211 200 198 224 221 219 203 195 206 225 207 243 201 245 249 261 274 274 280 270 267 279 284 291 283 256 235 218
334 332 329 330 326 317 310 303 290 280 275 272 279 286 273 249 254 245 230 231 223 228 222 208 207 214 225 244 238 259 267 269 269 263 269 266 273 280 279 287 286 274 255 235 229
330 330 329 324 322 321 321 310 300 289 279 275 279 276 261 248 247 247 239 244 242 240 237 233 228 201 214 307 275 275 284 282 264 263 260 274 282 268 279 279 281 281 268 253 238
324 323 321 322 322 320 318 312 302 297 291 285 272 268 257 258 260 249 243 238 234 237 236 240 242 245 227 247 315 2 306 268 256 251 259 225 267 276 280 276 277 281 281 259 237
322 320 320 318 315 317 316 311 307 297 277 263 252 233 274 273 253 257 245 239 234 230 223 224 219 221 178 208 315 278 260 268 275 235 253 183 277 269 282 278 276 281 280 264 238
323 321 317 316 316 313 311 315 316 301 276 200 218 232 250 250 257 260 250 233 229 236 227 211 205 180 161 143 214 213 230 242 250 327 215 254 259 273 279 279 286 284 285 262 233
319 320 321 319 315 316 311 333 352 315 313 224 213 220 116 24 231 284 243 199 203 211 187 177 196 210 192 207 216 222 223 248 276 243 250 245 262 275 280 294 272 272 271 263 237
324 320 317 317 316 317 308 309 9 323 298 287 270 248 258 274 298 248 210 151 177 198 166 170 226 201 206 207 217 223 242 258 280 274 228 271 262 268 283 277 265 264 268 252 253
323 322 320 316 311 312 295 304 339 338 271 280 255 243 237 242 230 249 196 182 175 190 191 202 229 204 203 206 212 223 228 246 246 353 292 302 287 280 283 291 277 264 258 261 255
324 322 322 318 314 301 307 328 321 316 293 277 224 255 216 215 225 233 212 192 190 199 199 229 227 191 203 215 198 222 216 239 256 277 255 131 287 301 287 300 292 272 250 244 239
326 325 320 315 301 295 306 300 314 163 294 244 129 37 278 184 151 220 213 210 202 165 179 210 186 212 214 210 200 224 212 225 245 250 292 256 274 269 242 281 271 263 280 269 214
322 322 316 310 300 320 317 321 310 181 244 307 56 350 35 220 246 335 174 205 205 223 229 216 206 201 217 200 202 169 153 260 272 268 261 264 189 213 232 223 252 241 279 184 180
324 320 307 295 283 308 308 327 183 221 299 30 356 343 11 336 220 248 247 192 188 193 216 178 225 211 170 205 163 172 108 268 281 215 226 239 191 246 248 236 230 246 198 176 179
330 322 310 303 298 280 315 112 229 259 259 346 358 332 34 7 344 337 235 200 216 198 185 201 211 211 173 182 187 199 179 166 205 197 189 170 234 243 224 267 244 254 207 176 178
332 326 339 2 266 160 183 213 235 288 21 344 342 342 352 354 334 352 343 251 225 216 183 198 231 175 186 168 162 193 207 184 10 312 72 220 285 329 314 244 200 154 161 177 185
341 338 1 346 170 170 180 243 274 339 1 354 359 347 335 338 5 359 315 27 349 328 173 268 207 214 206 193 198 168 151 177 201 211 207 266 255 216 224 261 148 148 165 177 183
345 337 1 26 159 179 220 258 304 307 307 327 340 312 309 316 4 340 300 344 23 350 333 203 151 278 160 204 188 175 197 162 156 216 170 185 256 219 206 191 190 195 182 181 184
359 328 327 302 194 207 220 258 306 296 294 287 255 272 276 321 314 312 275 323 6 17 349 288 227 216 225 246 194 199 196 205 185 203 227 162 259 227 213 202 182 184 187 189 188
348 306 332 57 336 147 295 277 270 294 287 277 277 255 286 294 310 304 317 327 322 12 345 331 281 259 338 346 181 198 202 206 171 96 193 189 251 175 170 165 201 162 186 190 187
6 336 335 45 1 303 311 270 281 293 294 252 247 267 288 286 293 289 281 286 306 311 327 338 282 247 217 224 145 186 199 172 189 218 219 222 185 194 185 156 165 180 187 189 189
23 322 350 321 321 296 284 297 312 339 310 297 301 265 302 285 303 273 278 302 305 311 8 36 276 308 275 258 278 202 191 198 205 200 199 221 193 209 194 185 183 193 184 182 186
358 341 323 284 301 301 304 306 300 331 259 293 253 291 286 270 281 290 297 296 307 300 347 3 281 324 267 244 241 248 247 202 213 213 225 175 218 206 201 165 138 182 176 181 189
334 299 280 280 318 339 278 342 295 311 289 234 296 305 281 275 316 294 292 283 240 229 263 297 333 351 280 244 242 257 241 222 211 203 203 183 215 157 145 169 178 182 186 189 193
Height
1512 1511 1509 1508 1507 1505 1504 1505 1505 1505 1504 1504 1501 1500 1500 1497 1496 1496 1494 1499 1503 1504 1503 1502 1501 1505 1510 1509 1509 1513 1523 1523 1512 1506 1496 1487 1490 1483 1485 1483 1481 1478 1474 1473 1473
1507 1505 1503 1502 1501 1500 1500 1501 1501 1500 1499 1498 1496 1496 1495 1492 1488 1485 1491 1495 1496 1497 1498 1497 1499 1504 1506 1506 1503 1508 1519 1508 1489 1493 1492 1486 1489 1485 1485 1480 1477 1475 1472 1470 1470
1502 1501 1500 1498 1497 1495 1496 1494 1494 1494 1493 1492 1492 1491 1490 1488 1484 1476 1484 1487 1488 1490 1490 1494 1496 1501 1503 1502 1495 1498 1501 1487 1488 1485 1488 1487 1482 1483 1482 1479 1475 1472 1468 1465 1466
1502 1500 1497 1495 1493 1494 1492 1489 1488 1488 1488 1488 1487 1486 1486 1486 1488 1475 1477 1479 1481 1483 1483 1488 1490 1497 1496 1493 1486 1495 1491 1489 1483 1482 1486 1483 1481 1478 1476 1473 1470 1468 1464 1461 1462
1501 1499 1496 1494 1491 1488 1487 1486 1485 1485 1483 1481 1481 1481 1481 1478 1465 1474 1474 1477 1479 1477 1478 1480 1483 1489 1490 1484 1485 1489 1483 1482 1485 1483 1480 1480 1476 1471 1467 1466 1464 1462 1460 1457 1457
1499 1496 1493 1490 1488 1485 1483 1481 1481 1478 1476 1475 1475 1474 1476 1467 1462 1469 1473 1470 1473 1474 1475 1478 1478 1480 1483 1481 1485 1480 1483 1480 1479 1479 1479 1474 1468 1467 1461 1462 1459 1457 1455 1453 1453
1497 1493 1491 1488 1485 1482 1479 1476 1473 1471 1471 1470 1470 1472 1465 1438 1455 1457 1460 1459 1465 1469 1471 1474 1478 1480 1479 1482 1480 1478 1479 1473 1474 1471 1470 1470 1465 1458 1455 1457 1454 1452 1449 1448 1446
1495 1491 1488 1485 1481 1478 1475 1472 1469 1465 1464 1465 1467 1470 1449 1441 1448 1449 1456 1454 1457 1461 1465 1471 1477 1478 1477 1479 1478 1479 1479 1482 1467 1465 1461 1469 1462 1451 1450 1450 1447 1444 1442 1441 1442
1492 1489 1485 1482 1478 1475 1471 1465 1462 1459 1458 1461 1466 1467 1445 1441 1434 1438 1443 1445 1454 1458 1461 1467 1471 1474 1474 1480 1490 1486 1484 1481 1466 1462 1462 1464 1457 1444 1445 1445 1442 1437 1435 1434 1434
1489 1486 1483 1479 1476 1472 1468 1464 1457 1453 1451 1456 1461 1465 1443 1432 1428 1427 1431 1439 1446 1452 1459 1464 1467 1468 1469 1478 1482 1485 1484 1475 1465 1458 1458 1458 1456 1442 1438 1438 1435 1431 1429 1427 1427
1486 1482 1478 1475 1473 1470 1465 1461 1460 1456 1454 1448 1446 1434 1429 1427 1427 1426 1426 1429 1440 1449 1449 1455 1463 1451 1452 1455 1458 1464 1472 1468 1456 1454 1457 1454 1450 1440 1433 1435 1431 1426 1424 1420 1422
1483 1479 1476 1472 1468 1467 1464 1464 1465 1465 1448 1441 1436 1434 1427 1432 1434 1424 1425 1428 1433 1435 1443 1451 1432 1435 1446 1452 1457 1464 1468 1462 1451 1452 1455 1450 1448 1436 1428 1426 1423 1421 1417 1417 1419
1480 1476 1472 1469 1466 1463 1461 1462 1462 1459 1453 1427 1420 1415 1417 1423 1426 1415 1420 1421 1425 1433 1428 1425 1409 1434 1440 1445 1455 1456 1461 1461 1457 1453 1450 1449 1445 1435 1420 1420 1416 1414 1412 1412 1413
1476 1473 1469 1465 1465 1460 1460 1461 1460 1458 1455 1423 1412 1404 1404 1408 1407 1407 1412 1415 1418 1421 1426 1424 1421 1424 1432 1435 1442 1453 1447 1448 1452 1461 1472 1445 1469 1437 1427 1422 1417 1411 1408 1408 1408
1474 1469 1466 1464 1460 1458 1459 1456 1456 1456 1457 1408 1406 1405 1401 1404 1398 1393 1400 1407 1409 1412 1417 1410 1412 1422 1425 1422 1433 1437 1440 1447 1450 1456 1456 1450 1465 1438 1428 1425 1417 1409 1403 1404 1404
1469 1465 1462 1459 1456 1455 1453 1453 1454 1459 1443 1411 1405 1406 1398 1399 1395 1387 1389 1400 1404 1406 1405 1403 1402 1408 1401 1416 1423 1431 1441 1447 1450 1457 1463 1443 1459 1441 1429 1419 1409 1403 1401 1401 1404
1464 1461 1457 1455 1451 1452 1452 1452 1456 1450 1418 1414 1412 1405 1402 1395 1391 1388 1394 1393 1394 1411 1405 1405 1404 1400 1404 1418 1423 1432 1452 1478 1479 1475 1461 1433 1450 1424 1411 1406 1402 1400 1400 1402 1406
1459 1455 1451 1449 1448 1449 1451 1453 1453 1424 1421 1413 1417 1410 1408 1403 1397 1391 1387 1390 1384 1386 1395 1407 1415 1397 1394 1403 1417 1425 1434 1461 1471 1468 1448 1430 1438 1413 1395 1393 1394 1396 1397 1401 1406
1455 1451 1448 1447 1445 1447 1451 1448 1439 1429 1429 1425 1418 1413 1409 1411 1409 1400 1396 1393 1385 1383 1397 1403 1400 1383 1389 1395 1402 1419 1426 1426 1441 1435 1444 1433 1414 1397 1391 1394 1393 1392 1394 1400 1403
1453 1449 1448 1446 1445 1448 1450 1443 1438 1431 1431 1428 1428 1422 1423 1416 1414 1412 1405 1401 1392 1388 1386 1389 1402 1381 1379 1388 1389 1401 1410 1436 1443 1450 1448 1433 1420 1417 1396 1393 1395 1395 1396 1399 1404
1453 1451 1450 1448 1447 1449 1447 1446 1438 1434 1434 1434 1431 1431 1425 1419 1419 1417 1409 1401 1401 1395 1389 1386 1390 1382 1378 1377 1385 1399 1402 1409 1418 1426 1444 1444 1427 1396 1391 1390 1392 1392 1394 1397 1401
1454 1453 1450 1447 1450 1447 1449 1444 1440 1435 1434 1433 1430 1428 1423 1420 1417 1418 1413 1409 1409 1406 1405 1395 1389 1390 1378 1367 1370 1380 1392 1395 1406 1425 1418 1425 1415 1381 1381 1381 1382 1387 1393 1397 1401
1457 1455 1452 1447 1447 1446 1446 1443 1440 1435 1433 1431 1427 1424 1422 1421 1422 1415 1413 1410 1408 1407 1409 1405 1393 1391 1389 1376 1369 1372 1372 1378 1394 1407 1417 1420 1404 1378 1379 1379 1383 1385 1391 1396 1401
1460 1458 1454 1451 1451 1451 1446 1441 1439 1433 1430 1427 1425 1424 1422 1419 1417 1415 1410 1410 1408 1411 1408 1406 1403 1380 1372 1363 1361 1370 1371 1379 1387 1401 1398 1397 1389 1381 1380 1380 1385 1389 1392 1394 1399
1462 1462 1459 1455 1451 1450 1447 1442 1438 1436 1431 1425 1424 1423 1424 1419 1414 1410 1407 1405 1406 1407 1409 1410 1409 1390 1370 1360 1360 1359 1366 1370 1376 1377 1392 1381 1387 1379 1376 1378 1378 1383 1390 1395 1400
1464 1464 1460 1457 1454 1450 1445 1441 1438 1434 1435 1426 1426 1423 1421 1421 1418 1416 1409 1407 1404 1409 1411 1411 1409 1395 1375 1362 1358 1365 1361 1360 1364 1370 1374 1377 1379 1364 1363 1369 1378 1383 1387 1392 1396
1463 1462 1460 1455 1454 1453 1449 1444 1438 1435 1428 1427 1423 1422 1418 1412 1410 1409 1407 1405 1404 1407 1409 1411 1409 1401 1386 1362 1365 1377 1353 1358 1357 1356 1359 1376 1366 1362 1367 1369 1374 1379 1382 1384 1390